DW5914 Weather Reports


Display with metric or nautical units.
time (UTC)temp
F
wind
direction
speed
MPH
gust
MPH
rain 1hr
in
rain 24hr
in
rain mn
in
humidity
%
barometer
mb
20260509051557 53 169 1.0 3.0 0.00 0.00 0.00 78 1024.6
20260509050057 53 170 1.0 4.0 0.00 0.00 0.00 77 1024.5
20260509044556 53 161 1.0 4.0 0.00 0.00 0.00 76 1024.6
20260509043107 53 173 2.0 4.0 0.00 0.00 0.00 76 1024.4
20260509041602 53 170 2.0 5.0 0.00 0.00 0.00 76 1024.3
20260509034602 53 190 3.0 5.0 0.00 0.00 0.00 76 1024.0
20260509033048 53 167 2.0 5.0 0.00 0.00 0.00 77 1023.8
20260509031559 53 173 2.0 7.0 0.00 0.00 0.00 76 1023.7
20260509030046 54 202 3.0 7.0 0.00 0.00 0.00 77 1023.6
20260509024545 54 188 2.0 4.0 0.00 0.00 0.00 76 1023.5
20260509023048 54 190 1.0 5.0 0.00 0.00 0.00 74 1023.4
20260509021544 54 161 1.0 3.0 0.00 0.00 0.00 74 1023.5
20260509020051 55 146 0.0 4.0 0.00 0.00 0.00 74 1023.5
20260509014546 55 170 0.0 4.0 0.00 0.00 0.00 75 1023.5
20260509013050 55 199 2.0 7.0 0.00 0.00 0.00 75 1023.4
20260509011542 56 137 2.0 5.0 0.00 0.00 0.00 74 1023.4
20260509010051 56 141 1.0 5.0 0.00 0.00 0.00 73 1023.3
20260509004541 56 219 1.0 4.0 0.00 0.00 0.00 73 1023.3
20260509003043 56 152 0.0 5.0 0.00 0.00 0.00 73 1023.3
20260509001540 56 203 1.0 6.0 0.00 0.00 0.00 73 1023.4
20260509000040 56 238 4.0 8.0 0.00 0.00 0.00 72 1023.4
20260508234540 56 194 2.0 7.0 0.00 0.00 0.00 72 1023.4
20260508233038 57 304 3.0 6.0 0.00 0.00 0.00 71 1023.3
20260508231538 56 223 1.0 5.0 0.00 0.00 0.00 72 1023.3
20260508230047 55 293 4.0 9.0 0.00 0.00 0.00 72 1023.1
20260508224541 56 202 4.0 9.0 0.00 0.00 0.00 72 1023.2
20260508223038 56 200 2.0 7.0 0.00 0.00 0.00 72 1023.0
20260508221543 56 251 3.0 9.0 0.00 0.00 0.00 71 1023.1
20260508220033 57 304 3.0 11.0 0.00 0.00 0.00 71 1023.0
20260508214531 56 249 3.0 8.0 0.00 0.00 0.00 73 1023.0
20260508213029 55 188 4.0 11.0 0.00 0.00 0.00 73 1023.0
20260508211528 56 219 4.0 10.0 0.00 0.00 0.00 70 1022.9
20260508210026 57 240 3.0 7.0 0.00 0.00 0.00 72 1022.8
20260508204524 55 200 5.0 12.0 0.00 0.00 0.00 74 1022.7
20260508203023 54 199 3.0 9.0 0.00 0.00 0.00 75 1022.7
20260508201522 55 167 4.0 13.0 0.00 0.00 0.00 73 1022.6
20260508200023 55 122 2.0 11.0 0.00 0.00 0.00 74 1022.5
20260508194518 55 336 4.0 10.0 0.00 0.00 0.00 73 1022.4
20260508193016 56 211 4.0 8.0 0.00 0.00 0.00 73 1022.3
20260508191511 55 171 2.0 9.0 0.00 0.00 0.00 77 1022.2
20260508190008 54 202 3.0 12.0 0.00 0.00 0.00 79 1022.1
20260508184508 53 196 4.0 8.0 0.00 0.00 0.00 80 1022.2
20260508183006 52 210 3.0 9.0 0.00 0.00 0.00 80 1022.0
20260508181513 52 167 3.0 8.0 0.00 0.00 0.00 80 1021.9
20260508180003 52 197 2.0 7.0 0.00 0.00 0.00 80 1021.7
20260508174501 52 19 1.0 8.0 0.00 0.00 0.00 80 1021.6
20260508173101 53 222 2.0 9.0 0.00 0.00 0.00 79 1021.5
20260508171609 53 304 2.0 8.0 0.00 0.00 0.00 79 1021.2
20260508170100 53 287 2.0 8.0 0.00 0.00 0.00 79 1021.0
20260508164555 53 124 2.0 5.0 0.00 0.00 0.00 80 1020.7
20260508163049 52 160 0.0 6.0 0.00 0.00 0.00 81 1020.7
20260508161548 52 263 2.0 5.0 0.00 0.00 0.00 82 1020.7
20260508160045 51 119 2.0 7.0 0.00 0.00 0.00 83 1020.5
20260508154544 51 181 0.0 5.0 0.00 0.00 0.00 85 1020.6
20260508153043 51 210 3.0 7.0 0.00 0.00 0.00 85 1020.4
20260508151541 51 193 0.0 5.0 0.00 0.00 0.00 86 1020.3
20260508150042 51 170 1.0 6.0 0.00 0.00 0.00 87 1020.2
20260508144539 50 120 2.0 8.0 0.00 0.00 0.00 87 1020.0
20260508143036 50 229 2.0 7.0 0.00 0.00 0.00 88 1019.8
20260508141534 49 159 2.0 7.0 0.00 0.00 0.00 89 1019.6
20260508140032 49 183 3.0 6.0 0.00 0.00 0.00 90 1019.4
20260508134532 49 175 3.0 6.0 0.00 0.00 0.00 90 1019.2
20260508133033 49 210 3.0 7.0 0.00 0.00 0.00 90 1019.2
20260508131528 49 175 3.0 7.0 0.00 0.00 0.00 90 1018.9
20260508130026 49 217 3.0 8.0 0.00 0.00 0.00 90 1018.9
20260508124525 49 217 5.0 8.0 0.00 0.00 0.00 90 1018.8
20260508123024 49 190 4.0 8.0 0.00 0.00 0.00 90 1018.8
20260508121525 49 209 3.0 7.0 0.00 0.00 0.00 90 1018.8
20260508120021 49 186 3.0 6.0 0.00 0.00 0.00 89 1018.8
20260508114520 49 182 4.0 6.0 0.00 0.00 0.00 89 1018.5
20260508113019 49 178 2.0 6.0 0.00 0.00 0.00 89 1018.4
20260508111521 49 186 2.0 7.0 0.00 0.00 0.00 90 1018.5
20260508110017 49 180 2.0 4.0 0.00 0.00 0.00 90 1018.6
20260508104530 49 174 1.0 5.0 0.00 0.00 0.00 90 1018.3
20260508103020 50 185 2.0 5.0 0.00 0.00 0.00 90 1018.4
20260508101516 50 182 4.0 7.0 0.00 0.00 0.00 91 1018.4
20260508100016 49 206 2.0 4.0 0.00 0.00 0.00 90 1018.2
20260508094514 49 166 3.0 5.0 0.00 0.00 0.00 90 1018.2
20260508093012 49 178 1.0 4.0 0.00 0.00 0.00 89 1018.2
20260508091510 49 160 3.0 4.0 0.00 0.00 0.00 88 1018.2
20260508090010 49 157 2.0 3.0 0.00 0.00 0.00 88 1018.0
20260508084507 49 157 0.0 2.0 0.00 0.00 0.00 88 1018.2
20260508083006 50 157 0.0 0.0 0.00 0.00 0.00 87 1018.3
20260508081506 50 157 1.0 3.0 0.00 0.00 0.00 87 1018.3
20260508080006 50 157 0.0 3.0 0.00 0.00 0.00 87 1018.4
20260508074503 50 157 1.0 3.0 0.00 0.00 0.00 87 1018.5
20260508073002 49 159 0.0 3.0 0.00 0.00 0.00 88 1018.5
20260508071604 50 167 1.0 3.0 0.00 0.00 0.00 87 1018.6
20260508070142 50 157 2.0 5.0 0.00 0.00 0.00 87 1018.6
20260508064611 50 175 3.0 6.0 0.00 0.00 0.00 87 1018.7
20260508063058 50 179 3.0 6.0 0.00 0.00 0.00 87 1018.7
20260508061604 50 163 4.0 8.0 0.00 0.00 0.00 86 1018.7
20260508060057 51 191 4.0 9.0 0.00 0.00 0.00 85 1018.7
20260508054557 51 191 4.0 7.0 0.00 0.00 0.00 85 1018.6
20260508053105 51 184 3.0 6.0 0.00 0.00 0.00 85 1018.7